Location: Grand Rapids
(42.9630°N, 85.6680°W)
Time: 02:10:28
(UTC-04:00)

Courier 1B - All Passes

Search period start: 30 May 2024 00:00
Search period end: 09 June 2024 00:00
Orbit: 962 x 1208 km, 28.3° (Epoch: 29 May)

Date Brightness Start Highest point End Pass type
(mag) Time Alt. Az. Time Alt. Az. Time Alt. Az.
30 May - 10:13:20 10° S 10:15:58 12° SSE 10:18:33 10° SE daylight
30 May - 12:03:58 10° SW 12:08:58 21° S 12:13:47 10° SE daylight
30 May - 13:57:06 10° SW 14:02:01 21° S 14:06:46 10° SE daylight
30 May - 15:52:10 10° SW 15:54:53 13° SSW 15:57:34 10° S daylight
31 May - 11:10:31 10° SSW 11:15:22 20° SSE 11:20:02 10° SE daylight
31 May - 13:03:16 10° SW 13:08:26 23° S 13:13:25 10° SE daylight
31 May - 14:57:37 10° SW 15:01:23 16° SSW 15:05:05 10° SSE daylight
01 Jun - 10:17:12 10° SSW 10:21:44 18° SSE 10:26:08 10° SE daylight
01 Jun - 12:09:29 10° SW 12:14:50 23° S 12:19:58 10° SE daylight
01 Jun - 14:03:23 10° SW 14:07:52 19° SSW 14:12:12 10° SSE daylight
02 Jun - 09:24:06 10° SSW 09:28:07 15° SSE 09:32:01 10° SE daylight
02 Jun - 11:15:47 10° SW 11:21:13 23° S 11:26:25 10° SE daylight
02 Jun - 13:09:19 10° SW 13:14:18 21° S 13:19:05 10° SE daylight
02 Jun - 15:05:33 10° SW 15:07:08 11° SSW 15:08:41 10° S daylight
03 Jun - 08:31:25 10° S 08:34:29 13° SSE 08:37:29 10° SE daylight
03 Jun - 10:22:09 10° SW 10:27:34 22° S 10:32:45 10° ESE daylight
03 Jun - 12:15:20 10° SW 12:20:42 23° S 12:25:50 10° SE daylight
03 Jun - 14:10:16 10° SW 14:13:38 14° SSW 14:16:55 10° S daylight
04 Jun - 07:40:43 10° SSE 07:40:51 10° SSE 07:41:00 10° SSE daylight
04 Jun - 09:28:39 10° SSW 09:33:54 21° SSE 09:38:58 10° ESE daylight
04 Jun - 11:21:26 10° SW 11:27:04 24° S 11:32:27 10° SE daylight
04 Jun - 13:15:46 10° SW 13:20:06 17° SSW 13:24:18 10° SSE daylight
05 Jun - 08:35:18 10° SSW 08:40:13 18° SSE 08:45:00 10° ESE daylight
05 Jun - 10:27:37 10° SW 10:33:24 25° S 10:38:57 10° SE daylight
05 Jun - 12:21:30 10° WSW 12:26:31 20° SSW 12:31:20 10° SSE daylight
06 Jun - 07:42:14 10° SSW 07:46:33 16° SSE 07:50:47 10° SE daylight
06 Jun - 09:33:52 10° SW 09:39:43 24° S 09:45:20 10° ESE daylight
06 Jun - 11:27:24 10° WSW 11:32:54 23° S 11:38:10 10° SE daylight
06 Jun - 13:23:03 10° SW 13:25:49 13° SSW 13:28:31 10° S daylight
07 Jun - 06:49:37 10° S 06:52:53 13° SSE 06:56:06 10° SE daylight
07 Jun - 08:40:14 10° SW 08:46:00 23° S 08:51:35 10° ESE daylight
07 Jun - 10:33:23 10° WSW 10:39:14 25° S 10:44:50 10° SE daylight
07 Jun - 12:28:09 10° SW 12:32:16 16° SSW 12:36:15 10° SSE daylight
08 Jun - 07:46:45 10° SSW 07:52:17 21° SSE 07:57:40 10° ESE daylight
08 Jun - 09:39:29 10° SW 09:45:32 26° S 09:51:21 10° SE daylight
08 Jun - 11:33:42 10° WSW 11:38:40 19° SSW 11:43:27 10° SSE daylight
